N4XWC Weather Reports


time (UTC)temp
F
wind
direction
speed
knots
gust
knots
rain 1hr
in
rain 24hr
in
rain mn
in
humidity
%
barometer
mb
20210224231734 69 240 5.2 6.1 0.00 0.00 0.00 18 1016.9
20210224231523 70 260 3.5 7.8 0.00 0.00 0.00 18 1016.9
20210224231220 70 251 2.6 2.6 0.00 0.00 0.00 18 1016.7
20210224230716 70 241 6.1 6.1 0.00 0.00 0.00 18 1016.7
20210224230520 70 246 3.5 7.0 0.00 0.00 0.00 18 1016.7
20210224230216 70 248 5.2 5.2 0.00 0.00 0.00 18 1016.7
20210224225719 70 243 8.7 8.7 0.00 0.00 0.00 18 1016.6
20210224225522 70 213 3.5 6.1 0.00 0.00 0.00 18 1016.6
20210224225215 70 227 1.7 2.6 0.00 0.00 0.00 17 1016.6
20210224224727 70 282 7.8 13.0 0.00 0.00 0.00 17 1016.6
20210224224521 71 260 6.1 8.7 0.00 0.00 0.00 17 1016.6
20210224224215 71 232 8.7 9.6 0.00 0.00 0.00 17 1016.4
20210224223717 71 268 2.6 7.0 0.00 0.00 0.00 17 1016.4
20210224223512 71 208 8.7 8.7 0.00 0.00 0.00 17 1016.4
20210224223218 71 205 0.0 4.3 0.00 0.00 0.00 18 1016.4
20210224222930 71 184 3.5 7.8 0.00 0.00 0.00 17 1016.4
20210224222652 71 205 0.9 2.6 0.00 0.00 0.00 17 1016.4
20210224222226 71 263 0.9 5.2 0.00 0.00 0.00 17 1016.4
20210224221721 72 226 2.6 8.7 0.00 0.00 0.00 16 1016.4
20210224221521 72 224 8.7 9.6 0.00 0.00 0.00 17 1016.4
20210224221218 71 232 0.9 4.3 0.00 0.00 0.00 16 1016.5
20210224220717 71 275 4.3 8.7 0.00 0.00 0.00 17 1016.5
20210224220519 71 260 2.6 6.1 0.00 0.00 0.00 16 1016.5
20210224220217 72 243 5.2 5.2 0.00 0.00 0.00 17 1016.5
20210224215720 72 246 3.5 6.1 0.00 0.00 0.00 17 1016.6
20210224215521 72 234 6.1 8.7 0.00 0.00 0.00 18 1016.6
20210224215419 72 247 2.6 8.7 0.00 0.00 0.00 18 1016.6
20210224214717 71 210 2.6 12.2 0.00 0.00 0.00 17 1016.6
20210224214520 71 202 8.7 10.4 0.00 0.00 0.00 18 1016.6
20210224214215 71 205 3.5 7.8 0.00 0.00 0.00 18 1016.7
20210224213715 72 206 8.7 13.0 0.00 0.00 0.00 18 1016.7
20210224213518 72 260 7.8 9.6 0.00 0.00 0.00 18 1016.7
20210224213217 72 281 3.5 8.7 0.00 0.00 0.00 18 1016.7
20210224212911 72 195 7.0 8.7 0.00 0.00 0.00 18 1016.8
20210224212600 72 244 5.2 8.7 0.00 0.00 0.00 18 1016.8
20210224212220 72 240 5.2 9.6 0.00 0.00 0.00 19 1016.8
20210224211717 71 240 2.6 5.2 0.00 0.00 0.00 19 1016.8
20210224211522 71 227 9.6 11.3 0.00 0.00 0.00 19 1016.8
20210224211218 71 243 2.6 8.7 0.00 0.00 0.00 19 1016.8
20210224210715 71 233 7.0 9.6 0.00 0.00 0.00 19 1016.8
20210224210522 71 219 3.5 8.7 0.00 0.00 0.00 19 1016.8
20210224210217 71 198 6.1 13.9 0.00 0.00 0.00 19 1016.8
20210224205717 71 215 7.8 8.7 0.00 0.00 0.00 19 1016.8
20210224205513 71 167 3.5 6.1 0.00 0.00 0.00 19 1016.8
20210224205318 72 196 8.7 10.4 0.00 0.00 0.00 18 1016.8
20210224204717 71 203 1.7 3.5 0.00 0.00 0.00 20 1016.8
20210224204518 71 264 4.3 5.2 0.00 0.00 0.00 19 1016.8
20210224204216 71 210 8.7 13.9 0.00 0.00 0.00 19 1016.8
20210224203716 71 199 4.3 7.8 0.00 0.00 0.00 20 1016.8
20210224203519 71 215 5.2 12.2 0.00 0.00 0.00 20 1016.8
20210224203216 71 237 8.7 8.7 0.00 0.00 0.00 20 1016.8
20210224202857 71 232 2.6 8.7 0.00 0.00 0.00 19 1016.7
20210224202556 71 222 5.2 8.7 0.00 0.00 0.00 19 1016.7
20210224202217 71 215 3.5 7.0 0.00 0.00 0.00 19 1016.7
20210224201717 71 229 9.6 9.6 0.00 0.00 0.00 20 1016.7
20210224201511 71 216 2.6 9.6 0.00 0.00 0.00 19 1016.7
20210224201222 71 239 7.8 12.2 0.00 0.00 0.00 19 1016.7
20210224200717 71 217 8.7 12.2 0.00 0.00 0.00 18 1016.7
20210224200520 71 178 2.6 7.8 0.00 0.00 0.00 19 1016.7
20210224200217 71 223 9.6 9.6 0.00 0.00 0.00 18 1016.7
20210224195730 71 229 3.5 6.1 0.00 0.00 0.00 19 1016.8
20210224195523 71 236 2.6 4.3 0.00 0.00 0.00 20 1016.8
20210224195400 70 188 3.5 4.3 0.00 0.00 0.00 20 1016.8
20210224194752 70 191 5.2 7.8 0.00 0.00 0.00 19 1016.8
20210224194518 70 206 1.7 7.8 0.00 0.00 0.00 19 1016.8
20210224194222 70 253 4.3 8.7 0.00 0.00 0.00 19 1017.0
20210224193716 70 212 1.7 2.6 0.00 0.00 0.00 20 1017.0
20210224193532 70 239 7.8 12.2 0.00 0.00 0.00 20 1017.0
20210224193230 70 198 1.7 6.1 0.00 0.00 0.00 19 1017.0
20210224192909 70 208 7.8 10.4 0.00 0.00 0.00 19 1017.2
20210224192541 70 224 9.6 9.6 0.00 0.00 0.00 19 1017.2
20210224192217 70 185 1.7 4.3 0.00 0.00 0.00 20 1017.2
20210224191717 70 219 8.7 9.6 0.00 0.00 0.00 19 1017.2
20210224191513 70 203 9.6 14.8 0.00 0.00 0.00 19 1017.2
20210224191216 70 192 4.3 10.4 0.00 0.00 0.00 18 1017.5
20210224190719 70 188 2.6 8.7 0.00 0.00 0.00 19 1017.5
20210224190515 69 157 4.3 4.3 0.00 0.00 0.00 19 1017.5
20210224190215 69 199 10.4 10.4 0.00 0.00 0.00 19 1017.5
20210224185717 69 246 4.3 8.7 0.00 0.00 0.00 18 1017.9
20210224185509 69 199 1.7 8.7 0.00 0.00 0.00 19 1017.9
20210224185357 69 198 7.8 13.0 0.00 0.00 0.00 19 1017.9
20210224184729 68 216 0.9 4.3 0.00 0.00 0.00 19 1017.9
20210224184518 68 258 7.0 8.7 0.00 0.00 0.00 19 1017.9
20210224184215 68 200 4.3 5.2 0.00 0.00 0.00 19 1018.2
20210224183715 68 212 4.3 8.7 0.00 0.00 0.00 19 1018.2
20210224183521 68 234 8.7 12.2 0.00 0.00 0.00 18 1018.2
20210224183217 68 220 2.6 14.8 0.00 0.00 0.00 18 1018.2
20210224182854 68 251 4.3 8.7 0.00 0.00 0.00 18 1018.5
20210224182548 68 250 5.2 5.2 0.00 0.00 0.00 20 1018.5
20210224182217 67 292 2.6 6.1 0.00 0.00 0.00 19 1018.5
20210224181731 67 219 7.8 12.2 0.00 0.00 0.00 19 1018.5
20210224181718 67 219 7.8 12.2 0.00 0.00 0.00 19 1018.5
20210224181528 67 202 4.3 5.2 0.00 0.00 0.00 20 1018.5
20210224181217 67 240 5.2 5.2 0.00 0.00 0.00 20 1018.9
20210224180716 67 230 13.0 13.0 0.00 0.00 0.00 20 1018.9
20210224180526 67 220 6.1 6.1 0.00 0.00 0.00 21 1018.9
20210224180218 67 210 3.5 5.2 0.00 0.00 0.00 21 1018.9
20210224175718 66 258 6.1 10.4 0.00 0.00 0.00 20 1019.2
20210224175520 66 236 12.2 12.2 0.00 0.00 0.00 20 1019.2
20210224175328 66 247 1.7 8.7 0.00 0.00 0.00 21 1019.2
20210224174719 66 239 5.2 6.1 0.00 0.00 0.00 22 1019.2
20210224174530 66 206 5.2 8.7 0.00 0.00 0.00 21 1019.2
20210224174220 66 216 8.7 13.9 0.00 0.00 0.00 20 1019.4
20210224173716 66 236 1.7 2.6 0.00 0.00 0.00 22 1019.4
20210224173517 66 217 4.3 8.7 0.00 0.00 0.00 23 1019.4
20210224173216 65 239 3.5 3.5 0.00 0.00 0.00 22 1019.4
20210224172811 64 247 2.6 9.6 0.00 0.00 0.00 22 1019.8
20210224172522 64 248 8.7 10.4 0.00 0.00 0.00 24 1019.8
20210224172216 64 232 0.9 7.8 0.00 0.00 0.00 26 1019.8
20210224171754 63 248 8.7 9.6 0.00 0.00 0.00 25 1019.8
20210224171520 63 220 6.1 10.4 0.00 0.00 0.00 24 1019.8
20210224171215 63 224 7.8 8.7 0.00 0.00 0.00 25 1020.0
20210224170716 63 256 5.2 10.4 0.00 0.00 0.00 25 1020.0
20210224170521 63 198 3.5 12.2 0.00 0.00 0.00 25 1020.0
20210224170217 63 219 2.6 4.3 0.00 0.00 0.00 26 1020.0
20210224165721 63 206 4.3 9.6 0.00 0.00 0.00 24 1020.3
20210224165523 63 227 6.1 13.0 0.00 0.00 0.00 26 1020.3
20210224165308 62 189 2.6 6.1 0.00 0.00 0.00 28 1020.3
20210224164723 62 258 5.2 8.7 0.00 0.00 0.00 27 1020.3
20210224164522 62 178 2.6 5.2 0.00 0.00 0.00 27 1020.3
20210224164225 61 237 0.9 7.8 0.00 0.00 0.00 28 1020.4
20210224163723 61 230 7.0 8.7 0.00 0.00 0.00 28 1020.4
20210224163510 61 216 8.7 8.7 0.00 0.00 0.00 28 1020.4
20210224163218 61 189 3.5 8.7 0.00 0.00 0.00 27 1020.4
20210224162733 61 213 2.6 4.3 0.00 0.00 0.00 29 1020.6
20210224162532 60 260 4.3 4.3 0.00 0.00 0.00 28 1020.6
20210224162218 60 227 6.1 8.7 0.00 0.00 0.00 31 1020.6
20210224161727 60 210 8.7 8.7 0.00 0.00 0.00 29 1020.6
20210224161515 60 224 2.6 4.3 0.00 0.00 0.00 30 1020.6
20210224161216 60 226 0.9 5.2 0.00 0.00 0.00 32 1020.6
20210224160717 59 172 1.7 2.6 0.00 0.00 0.00 33 1020.6
20210224160518 59 215 5.2 6.1 0.00 0.00 0.00 34 1020.6
20210224160216 59 233 1.7 4.3 0.00 0.00 0.00 34 1020.6
20210224155717 59 203 3.5 5.2 0.00 0.00 0.00 35 1020.7
20210224155522 58 193 1.7 4.3 0.00 0.00 0.00 35 1020.7
20210224155334 58 219 1.7 3.5 0.00 0.00 0.00 36 1020.7
20210224154729 58 162 2.6 5.2 0.00 0.00 0.00 36 1020.7
20210224154522 58 161 1.7 1.7 0.00 0.00 0.00 37 1020.7
20210224154218 57 162 2.6 3.5 0.00 0.00 0.00 37 1020.7
20210224153716 57 168 1.7 2.6 0.00 0.00 0.00 38 1020.7
20210224153523 56 184 1.7 3.5 0.00 0.00 0.00 38 1020.7
20210224153216 56 202 5.2 5.2 0.00 0.00 0.00 38 1020.7
20210224152725 56 191 2.6 4.3 0.00 0.00 0.00 39 1021.0
20210224152538 56 196 1.7 4.3 0.00 0.00 0.00 39 1021.0
20210224152215 56 179 2.6 2.6 0.00 0.00 0.00 41 1021.0
20210224151721 55 226 3.5 3.5 0.00 0.00 0.00 41 1021.0
20210224151521 55 181 3.5 4.3 0.00 0.00 0.00 41 1021.0
20210224151217 55 191 2.6 3.5 0.00 0.00 0.00 41 1021.0
20210224150717 55 195 4.3 4.3 0.00 0.00 0.00 41 1021.0
20210224150518 55 171 2.6 2.6 0.00 0.00 0.00 40 1021.0
20210224150216 54 185 2.6 2.6 0.00 0.00 0.00 41 1021.0
20210224145715 54 195 1.7 2.6 0.00 0.00 0.00 40 1021.0
20210224145516 54 196 1.7 2.6 0.00 0.00 0.00 40 1021.0
20210224145316 54 186 1.7 2.6 0.00 0.00 0.00 41 1021.0
20210224144723 54 178 1.7 2.6 0.00 0.00 0.00 40 1021.0
20210224144520 54 171 2.6 2.6 0.00 0.00 0.00 40 1021.0
20210224144216 54 202 1.7 1.7 0.00 0.00 0.00 41 1021.1
20210224143720 53 162 1.7 2.6 0.00 0.00 0.00 41 1021.1
20210224143518 53 188 1.7 1.7 0.00 0.00 0.00 42 1021.1
20210224143217 53 179 0.9 1.7 0.00 0.00 0.00 41 1021.1
20210224142904 52 210 1.7 2.6 0.00 0.00 0.00 43 1021.1
20210224142554 52 203 3.5 3.5 0.00 0.00 0.00 42 1021.1
20210224142218 52 193 1.7 3.5 0.00 0.00 0.00 44 1021.1
20210224141716 52 191 1.7 2.6 0.00 0.00 0.00 45 1021.1
20210224141523 52 189 1.7 2.6 0.00 0.00 0.00 45 1021.1
20210224141215 51 199 2.6 2.6 0.00 0.00 0.00 47 1020.8
20210224140717 51 210 2.6 3.5 0.00 0.00 0.00 46 1020.8
20210224140516 50 206 2.6 2.6 0.00 0.00 0.00 47 1020.8
20210224140217 50 176 2.6 3.5 0.00 0.00 0.00 46 1020.8
20210224135715 50 220 0.9 3.5 0.00 0.00 0.00 49 1020.9
20210224135520 50 191 0.9 2.6 0.00 0.00 0.00 49 1020.9
20210224135217 50 203 1.7 2.6 0.00 0.00 0.00 50 1020.9
20210224134717 49 191 1.7 1.7 0.00 0.00 0.00 50 1020.9
20210224134522 49 184 1.7 2.6 0.00 0.00 0.00 50 1020.9
20210224134216 49 184 0.9 1.7 0.00 0.00 0.00 50 1020.9
20210224133718 49 189 0.0 0.9 0.00 0.00 0.00 52 1020.9
20210224133520 48 189 0.0 0.9 0.00 0.00 0.00 52 1020.9
20210224133216 48 189 0.0 1.7 0.00 0.00 0.00 51 1020.9
20210224132941 48 189 0.9 1.7 0.00 0.00 0.00 52 1020.8
20210224132632 47 189 0.9 1.7 0.00 0.00 0.00 52 1020.8
20210224132217 47 189 1.7 1.7 0.00 0.00 0.00 53 1020.8
20210224131719 46 193 1.7 1.7 0.00 0.00 0.00 54 1020.8
20210224131521 46 193 1.7 1.7 0.00 0.00 0.00 54 1020.8
20210224131215 46 193 0.9 1.7 0.00 0.00 0.00 55 1020.6
20210224130715 46 193 0.9 1.7 0.00 0.00 0.00 56 1020.6
20210224130525 46 193 0.9 1.7 0.00 0.00 0.00 57 1020.6
20210224130217 45 184 0.9 0.9 0.00 0.00 0.00 57 1020.6
20210224125716 45 189 0.9 1.7 0.00 0.00 0.00 58 1020.5
20210224125608 45 191 0.9 1.7 0.00 0.00 0.00 58 1020.5
20210224125451 45 208 1.7 1.7 0.00 0.00 0.00 58 1020.5
20210224124745 44 208 0.9 1.7 0.00 0.00 0.00 59 1020.5
20210224124524 44 208 1.7 1.7 0.00 0.00 0.00 59 1020.5
20210224124220 44 210 0.9 1.7 0.00 0.00 0.00 59 1020.3
20210224123716 45 210 0.9 1.7 0.00 0.00 0.00 59 1020.3
20210224123526 45 210 0.9 1.7 0.00 0.00 0.00 59 1020.3
20210224123216 45 210 0.9 1.7 0.00 0.00 0.00 58 1020.3
20210224122937 45 210 0.0 0.9 0.00 0.00 0.00 58 1020.2
20210224122628 45 210 0.0 1.7 0.00 0.00 0.00 58 1020.2
20210224122215 46 210 0.0 1.7 0.00 0.00 0.00 58 1020.2
20210224121716 46 210 1.7 1.7 0.00 0.00 0.00 57 1020.2
20210224121511 46 210 1.7 2.6 0.00 0.00 0.00 56 1020.1
20210224121215 46 210 1.7 1.7 0.00 0.00 0.00 56 1020.1
20210224120717 46 206 0.9 0.9 0.00 0.00 0.00 54 1020.1
20210224120520 47 206 0.9 1.7 0.00 0.00 0.00 53 1020.1
20210224120218 47 206 0.9 1.7 0.00 0.00 0.00 53 1020.1
20210224115717 47 206 1.7 2.6 0.00 0.00 0.00 52 1019.9
20210224115517 47 206 1.7 2.6 0.00 0.00 0.00 52 1019.9
20210224115351 48 210 0.9 1.7 0.00 0.00 0.00 51 1019.9
20210224114737 48 193 2.6 2.6 0.00 0.00 0.00 51 1019.9
20210224114528 48 232 2.6 3.5 0.00 0.00 0.00 50 1019.7
20210224114220 48 222 2.6 4.3 0.00 0.00 0.00 50 1019.7
20210224113715 48 232 1.7 4.3 0.00 0.00 0.00 49 1019.7
20210224113523 48 212 2.6 4.3 0.00 0.00 0.00 49 1019.7
20210224113217 48 212 2.6 3.5 0.00 0.00 0.00 49 1019.7
20210224112728 49 233 3.5 3.5 0.00 0.00 0.00 48 1019.7
20210224112521 49 210 0.9 3.5 0.00 0.00 0.00 48 1019.7
20210224112216 49 210 1.7 4.3 0.00 0.00 0.00 48 1019.7
20210224111717 49 232 0.9 3.5 0.00 0.00 0.00 47 1019.7
20210224111522 49 226 2.6 4.3 0.00 0.00 0.00 47 1019.7
20210224111215 50 236 0.9 3.5 0.00 0.00 0.00 47 1019.5
20210224110717 50 224 2.6 2.6 0.00 0.00 0.00 46 1019.5
20210224110521 50 233 1.7 6.1 0.00 0.00 0.00 45 1019.5
20210224110240 50 224 1.7 2.6 0.00 0.00 0.00 45 1019.5
20210224105717 50 230 2.6 4.3 0.00 0.00 0.00 45 1019.4
20210224105512 50 261 2.6 5.2 0.00 0.00 0.00 45 1019.4
20210224105323 50 240 3.5 4.3 0.00 0.00 0.00 45 1019.4
20210224104716 50 227 5.2 6.1 0.00 0.00 0.00 45 1019.4
20210224104517 50 226 0.9 3.5 0.00 0.00 0.00 45 1019.4
20210224104217 50 251 2.6 5.2 0.00 0.00 0.00 46 1019.3
20210224103718 50 263 4.3 4.3 0.00 0.00 0.00 46 1019.3
20210224103516 50 246 3.5 8.7 0.00 0.00 0.00 46 1019.3
20210224103227 50 234 4.3 4.3 0.00 0.00 0.00 46 1019.3
20210224102814 50 250 5.2 5.2 0.00 0.00 0.00 46 1019.1
20210224102631 50 240 3.5 6.1 0.00 0.00 0.00 46 1019.1
20210224102215 50 205 3.5 7.0 0.00 0.00 0.00 45 1019.1
20210224101718 50 230 2.6 3.5 0.00 0.00 0.00 45 1019.1
20210224101522 51 234 3.5 4.3 0.00 0.00 0.00 45 1019.1
20210224101217 51 224 2.6 3.5 0.00 0.00 0.00 45 1018.9
20210224100717 51 224 3.5 3.5 0.00 0.00 0.00 45 1018.9
20210224100519 51 253 5.2 6.1 0.00 0.00 0.00 45 1018.9
20210224100220 51 233 4.3 4.3 0.00 0.00 0.00 45 1018.9
20210224095719 51 257 1.7 4.3 0.00 0.00 0.00 45 1018.8
20210224095520 51 223 4.3 5.2 0.00 0.00 0.00 44 1018.8
20210224095318 51 223 2.6 5.2 0.00 0.00 0.00 44 1018.8
20210224094718 52 227 3.5 6.1 0.00 0.00 0.00 44 1018.8
20210224094515 52 237 2.6 7.8 0.00 0.00 0.00 43 1018.8
20210224094217 52 226 3.5 6.1 0.00 0.00 0.00 43 1018.7
20210224093715 52 216 1.7 5.2 0.00 0.00 0.00 43 1018.7
20210224093519 52 248 5.2 6.1 0.00 0.00 0.00 43 1018.7
20210224093220 52 229 5.2 5.2 0.00 0.00 0.00 43 1018.7
20210224092726 52 234 3.5 5.2 0.00 0.00 0.00 43 1018.6
20210224092549 52 217 1.7 4.3 0.00 0.00 0.00 43 1018.6
20210224092222 52 215 3.5 5.2 0.00 0.00 0.00 43 1018.6
20210224091716 52 203 4.3 7.8 0.00 0.00 0.00 43 1018.6
20210224091523 52 216 4.3 6.1 0.00 0.00 0.00 43 1018.6
20210224091217 52 248 3.5 7.0 0.00 0.00 0.00 43 1018.4
20210224090715 52 223 4.3 4.3 0.00 0.00 0.00 43 1018.4
20210224090522 52 220 2.6 4.3 0.00 0.00 0.00 42 1018.4
20210224090215 52 219 4.3 6.1 0.00 0.00 0.00 42 1018.4
20210224085718 52 209 3.5 4.3 0.00 0.00 0.00 42 1018.3
20210224085519 53 222 1.7 4.3 0.00 0.00 0.00 42 1018.3
20210224085328 53 234 3.5 4.3 0.00 0.00 0.00 42 1018.3
20210224084725 53 205 2.6 5.2 0.00 0.00 0.00 41 1018.3
20210224084518 53 220 2.6 4.3 0.00 0.00 0.00 41 1018.3
20210224084221 53 220 3.5 4.3 0.00 0.00 0.00 41 1018.2
20210224083716 53 213 4.3 4.3 0.00 0.00 0.00 41 1018.2
20210224083517 53 212 2.6 4.3 0.00 0.00 0.00 41 1018.2
20210224083216 53 215 1.7 5.2 0.00 0.00 0.00 41 1018.2
20210224082825 53 239 2.6 5.2 0.00 0.00 0.00 40 1018.3
20210224082523 54 241 4.3 4.3 0.00 0.00 0.00 40 1018.3
20210224082216 54 236 2.6 4.3 0.00 0.00 0.00 40 1018.3
20210224081716 54 234 1.7 4.3 0.00 0.00 0.00 40 1018.3
20210224081514 54 216 1.7 4.3 0.00 0.00 0.00 39 1018.3
20210224081215 54 222 1.7 4.3 0.00 0.00 0.00 39 1018.3
20210224080717 54 223 3.5 5.2 0.00 0.00 0.00 39 1018.3
20210224080515 54 224 1.7 4.3 0.00 0.00 0.00 38 1018.3
20210224080217 54 208 2.6 5.2 0.00 0.00 0.00 38 1018.3
20210224075716 55 241 2.6 4.3 0.00 0.00 0.00 38 1018.3
20210224075521 55 220 2.6 5.2 0.00 0.00 0.00 38 1018.3
20210224075416 55 239 2.6 6.1 0.00 0.00 0.00 38 1018.3
20210224074716 55 227 2.6 6.1 0.00 0.00 0.00 38 1018.3
20210224074519 55 206 4.3 5.2 0.00 0.00 0.00 38 1018.3
20210224074216 55 232 3.5 5.2 0.00 0.00 0.00 37 1018.2
20210224073715 56 208 3.5 5.2 0.00 0.00 0.00 37 1018.2
20210224073524 56 234 4.3 5.2 0.00 0.00 0.00 36 1018.2
20210224073222 56 239 4.3 4.3 0.00 0.00 0.00 36 1018.2
20210224072821 56 237 2.6 7.8 0.00 0.00 0.00 36 1018.3
20210224072535 56 226 5.2 6.1 0.00 0.00 0.00 36 1018.3
20210224072216 56 208 2.6 6.1 0.00 0.00 0.00 35 1018.3
20210224071715 56 227 3.5 6.1 0.00 0.00 0.00 35 1018.3
20210224071520 56 222 6.1 6.1 0.00 0.00 0.00 35 1018.3
20210224071219 57 222 2.6 2.6 0.00 0.00 0.00 35 1018.5
20210224070717 57 258 2.6 6.1 0.00 0.00 0.00 35 1018.5
20210224070520 57 215 3.5 7.8 0.00 0.00 0.00 35 1018.5
20210224070216 57 229 6.1 8.7 0.00 0.00 0.00 35 1018.5
20210224065717 57 216 3.5 5.2 0.00 0.00 0.00 35 1018.3
20210224065528 57 257 3.5 4.3 0.00 0.00 0.00 35 1018.3
20210224065416 56 202 2.6 6.1 0.00 0.00 0.00 35 1018.3
20210224064717 56 202 2.6 5.2 0.00 0.00 0.00 35 1018.3
20210224064519 56 239 2.6 5.2 0.00 0.00 0.00 35 1018.3
20210224064217 56 233 4.3 4.3 0.00 0.00 0.00 35 1018.3
20210224063721 56 213 4.3 6.1 0.00 0.00 0.00 35 1018.3
20210224063519 56 232 3.5 8.7 0.00 0.00 0.00 35 1018.3
20210224063217 56 236 2.6 5.2 0.00 0.00 0.00 35 1018.3
20210224062809 56 219 2.6 4.3 0.00 0.00 0.00 35 1018.0
20210224062605 56 217 3.5 5.2 0.00 0.00 0.00 35 1018.0
20210224062220 56 219 2.6 3.5 0.00 0.00 0.00 35 1018.0
20210224061716 56 206 2.6 4.3 0.00 0.00 0.00 35 1018.0
20210224061521 56 215 2.6 3.5 0.00 0.00 0.00 35 1018.0
20210224061216 56 202 1.7 3.5 0.00 0.00 0.00 34 1018.2
20210224060719 56 212 1.7 3.5 0.00 0.00 0.00 34 1018.2
20210224060520 56 209 1.7 3.5 0.00 0.00 0.00 34 1018.2
20210224060215 56 217 1.7 4.3 0.00 0.00 0.00 34 1018.2
20210224055719 56 217 2.6 2.6 0.00 0.00 0.00 34 1018.1
20210224055515 57 205 1.7 3.5 0.00 0.00 0.00 34 1018.1
20210224055332 57 215 1.7 2.6 0.00 0.00 0.00 34 1018.1
20210224054716 57 222 0.9 2.6 0.00 0.00 0.00 34 1018.1
20210224054510 57 219 2.6 2.6 0.00 0.00 0.00 34 1018.1
20210224054215 57 217 1.7 2.6 0.00 0.00 0.00 34 1018.0
20210224053717 57 210 1.7 2.6 0.00 0.00 0.00 34 1018.0
20210224053519 57 212 2.6 2.6 0.00 0.00 0.00 34 1018.0
20210224053217 57 212 2.6 2.6 0.00 0.00 0.00 34 1018.0
20210224052917 57 208 1.7 2.6 0.00 0.00 0.00 34 1018.2
20210224052615 57 223 2.6 2.6 0.00 0.00 0.00 34 1018.2
20210224052218 57 232 2.6 3.5 0.00 0.00 0.00 34 1018.2
20210224051716 57 236 3.5 3.5 0.00 0.00 0.00 34 1018.2
20210224051518 57 233 1.7 2.6 0.00 0.00 0.00 34 1018.2
20210224051216 57 226 2.6 3.5 0.00 0.00 0.00 34 1018.4
20210224050716 57 215 2.6 3.5 0.00 0.00 0.00 34 1018.4
20210224050519 57 219 2.6 3.5 0.00 0.00 0.00 34 1018.4
20210224050218 57 223 1.7 3.5 0.00 0.00 0.00 34 1018.4
20210224045715 57 222 4.3 5.2 0.00 0.00 0.00 34 1018.3
20210224045534 57 223 1.7 3.5 0.00 0.00 0.00 34 1018.3
20210224045230 57 215 2.6 2.6 0.00 0.00 0.00 34 1018.3
20210224044716 57 213 2.6 3.5 0.00 0.00 0.00 34 1018.3
20210224044521 57 229 1.7 3.5 0.00 0.00 0.00 35 1018.3
20210224044218 57 236 1.7 3.5 0.00 0.00 0.00 35 1018.3
20210224043719 57 224 2.6 2.6 0.00 0.00 0.00 34 1018.3
20210224043522 57 215 1.7 2.6 0.00 0.00 0.00 34 1018.3
20210224043217 58 208 0.9 2.6 0.00 0.00 0.00 34 1018.3
20210224042725 58 208 1.7 2.6 0.00 0.00 0.00 34 1018.5
20210224042519 58 209 2.6 2.6 0.00 0.00 0.00 33 1018.5
20210224042221 58 213 0.9 2.6 0.00 0.00 0.00 33 1018.5
20210224041717 58 202 2.6 3.5 0.00 0.00 0.00 32 1018.5
20210224041518 59 210 2.6 2.6 0.00 0.00 0.00 32 1018.5
20210224041216 59 219 2.6 2.6 0.00 0.00 0.00 32 1018.6
20210224040716 59 208 0.9 4.3 0.00 0.00 0.00 32 1018.6
20210224040518 59 222 1.7 4.3 0.00 0.00 0.00 31 1018.6
20210224040217 59 230 2.6 3.5 0.00 0.00 0.00 31 1018.6
20210224035718 59 219 3.5 4.3 0.00 0.00 0.00 31 1018.6
20210224035519 59 243 1.7 4.3 0.00 0.00 0.00 31 1018.6
20210224035242 59 243 2.6 2.6 0.00 0.00 0.00 31 1018.6
20210224034717 59 234 3.5 3.5 0.00 0.00 0.00 31 1018.6
20210224034523 59 240 2.6 3.5 0.00 0.00 0.00 31 1018.6
20210224034216 59 226 2.6 2.6 0.00 0.00 0.00 31 1018.6
20210224033723 60 222 1.7 2.6 0.00 0.00 0.00 30 1018.6
20210224033522 60 233 0.9 2.6 0.00 0.00 0.00 30 1018.6
20210224033217 60 223 0.9 1.7 0.00 0.00 0.00 30 1018.6
20210224032759 60 236 1.7 3.5 0.00 0.00 0.00 30 1018.6
20210224032554 60 223 3.5 3.5 0.00 0.00 0.00 29 1018.6
20210224032217 60 234 2.6 2.6 0.00 0.00 0.00 29 1018.6
20210224031716 60 250 1.7 3.5 0.00 0.00 0.00 29 1018.6
20210224031519 60 253 1.7 3.5 0.00 0.00 0.00 29 1018.6
20210224031219 60 236 2.6 2.6 0.00 0.00 0.00 29 1018.6
20210224030716 60 250 2.6 3.5 0.00 0.00 0.00 29 1018.6
20210224030518 60 243 0.9 2.6 0.00 0.00 0.00 29 1018.6
20210224030216 60 247 1.7 3.5 0.00 0.00 0.00 29 1018.6
20210224025716 61 251 1.7 3.5 0.00 0.00 0.00 29 1018.6
20210224025515 61 237 4.3 4.3 0.00 0.00 0.00 29 1018.6
20210224025326 61 229 2.6 4.3 0.00 0.00 0.00 29 1018.6
20210224024716 61 237 2.6 3.5 0.00 0.00 0.00 29 1018.6
20210224024516 61 248 1.7 3.5 0.00 0.00 0.00 28 1018.6
20210224024218 61 230 3.5 5.2 0.00 0.00 0.00 28 1018.6
20210224023715 61 250 2.6 4.3 0.00 0.00 0.00 28 1018.6
20210224023520 61 239 1.7 3.5 0.00 0.00 0.00 28 1018.6
20210224023215 61 226 2.6 4.3 0.00 0.00 0.00 28 1018.6
20210224022859 61 258 1.7 3.5 0.00 0.00 0.00 28 1018.7
20210224022545 61 230 3.5 3.5 0.00 0.00 0.00 28 1018.7
20210224022216 61 237 3.5 5.2 0.00 0.00 0.00 28 1018.7
20210224021716 62 240 3.5 5.2 0.00 0.00 0.00 28 1018.7
20210224021523 62 246 2.6 3.5 0.00 0.00 0.00 28 1018.7
20210224021216 62 246 2.6 2.6 0.00 0.00 0.00 28 1018.7
20210224020715 62 226 2.6 3.5 0.00 0.00 0.00 27 1018.7
20210224020516 62 232 1.7 3.5 0.00 0.00 0.00 27 1018.7
20210224020217 62 233 2.6 2.6 0.00 0.00 0.00 28 1018.7
20210224015715 62 246 2.6 2.6 0.00 0.00 0.00 28 1018.7
20210224015519 62 233 2.6 3.5 0.00 0.00 0.00 28 1018.7
20210224015218 62 251 2.6 3.5 0.00 0.00 0.00 28 1018.7
20210224014720 62 253 0.9 3.5 0.00 0.00 0.00 28 1018.7
20210224014521 62 251 2.6 4.3 0.00 0.00 0.00 28 1018.7
20210224014226 62 244 4.3 5.2 0.00 0.00 0.00 28 1018.7
20210224013716 62 253 2.6 6.1 0.00 0.00 0.00 28 1018.7
20210224013510 62 239 2.6 6.1 0.00 0.00 0.00 28 1018.7
20210224013215 62 241 5.2 6.1 0.00 0.00 0.00 28 1018.7
20210224012919 62 261 1.7 1.7 0.00 0.00 0.00 27 1018.7
20210224012627 62 250 4.3 4.3 0.00 0.00 0.00 27 1018.7
20210224012219 62 254 2.6 3.5 0.00 0.00 0.00 27 1018.7
20210224011715 62 236 3.5 5.2 0.00 0.00 0.00 27 1018.7
20210224011525 62 239 2.6 4.3 0.00 0.00 0.00 27 1018.7
20210224011219 63 224 3.5 5.2 0.00 0.00 0.00 27 1018.6
20210224010719 63 223 2.6 5.2 0.00 0.00 0.00 27 1018.6
20210224010520 63 244 1.7 5.2 0.00 0.00 0.00 27 1018.6
20210224010219 63 239 2.6 5.2 0.00 0.00 0.00 27 1018.6
20210224005715 63 253 4.3 4.3 0.00 0.00 0.00 27 1018.5
20210224005510 63 257 2.6 4.3 0.00 0.00 0.00 26 1018.5
20210224005337 63 246 4.3 4.3 0.00 0.00 0.00 26 1018.5
20210224004715 63 234 1.7 2.6 0.00 0.00 0.00 26 1018.5
20210224004522 63 240 2.6 3.5 0.00 0.00 0.00 26 1018.5
20210224004217 63 244 3.5 4.3 0.00 0.00 0.00 26 1018.3
20210224003718 63 244 2.6 3.5 0.00 0.00 0.00 26 1018.3
20210224003519 63 239 2.6 2.6 0.00 0.00 0.00 26 1018.3
20210224003226 63 241 2.6 3.5 0.00 0.00 0.00 26 1018.3
20210224002754 64 254 3.5 4.3 0.00 0.00 0.00 26 1018.2
20210224002556 64 234 2.6 3.5 0.00 0.00 0.00 26 1018.2
20210224002218 64 239 3.5 4.3 0.00 0.00 0.00 26 1018.2
20210224001717 64 237 2.6 2.6 0.00 0.00 0.00 26 1018.2
20210224001529 64 220 2.6 2.6 0.00 0.00 0.00 26 1018.2
20210224001215 64 236 1.7 2.6 0.00 0.00 0.00 26 1018.1
20210224000724 64 234 2.6 2.6 0.00 0.00 0.00 26 1018.1
20210224000522 64 246 1.7 2.6 0.00 0.00 0.00 26 1018.1
20210224000217 64 250 1.7 2.6 0.00 0.00 0.00 26 1018.1
20210223235716 65 244 1.7 2.6 0.00 0.00 0.00 25 1017.8
20210223235516 65 232 1.7 2.6 0.00 0.00 0.00 25 1017.8
20210223235216 65 229 1.7 3.5 0.00 0.00 0.00 25 1017.8
20210223234718 65 247 1.7 1.7 0.00 0.00 0.00 25 1017.8
20210223234520 65 247 1.7 2.6 0.00 0.00 0.00 25 1017.8
20210223234216 66 243 2.6 2.6 0.00 0.00 0.00 25 1017.9
20210223233715 66 244 0.9 1.7 0.00 0.00 0.00 25 1017.9
20210223233522 66 244 1.7 2.6 0.00 0.00 0.00 24 1017.9
20210223233215 66 260 2.6 2.6 0.00 0.00 0.00 24 1017.9
20210223232913 67 263 3.5 3.5 0.00 0.00 0.00 24 1017.7
20210223232618 67 248 2.6 2.6 0.00 0.00 0.00 23 1017.7
20210223232217 67 244 2.6 3.5 0.00 0.00 0.00 23 1017.7